Content
SEND FEEDBACK

Daily
Averages
Monthly
Summary
United States of America

WICHITA, KANSAS


Home > North America > United States > Kansas
Elevation: 1321 feet     Latitude: 37 39N     Longitude: 097 26W

WEATHER
 
SELECT A DAY
Number of Records: 194,718;   Date Range: 1/1/95 - 10/20/14
 
SHARE

PRINT THIS DATA

[ ← Previous Day ]
WEATHER ALMANAC - JANUARY 30, 2013
[ Next Day → ]
[ °C ]   °F
Weather ElementAverageHighLow
Temperature29.3 °F34 °F (12:53 am)18 °F (10:53 pm)
Dewpoint22.2 °F32 °F (12:53 am)14 °F (7:53 pm)
Humidity76 %92 % (12:53 am)52 % (3:53 pm)
Barometer29.90 in30.04 in (7:53 pm)29.66 in (12:53 am)
Wind Speed18.2 mph28.8 mph (8:53 am)
Wind Gust40.3 mph (8:53 am)
Weather ElementAverage
Visibility8.3 mi
Wind DirectionWNW (303 °)

Weather ElementTotal
Precipitation---
Heating Degree Days39 (Base 65)
Averaged from 30 records on January 30, 2013
WEATHER CONDITIONS BREAKOUT
WIND DIRECTION BREAKOUT
WEATHER BY HOUR - JANUARY 30, 2013
[ °C ]   °F
Local TimeTemperatureDewpointHumidityBarometerVisibilityWind DirectionWind SpeedGust SpeedPrecipitationEventsConditions
12:53 AM34.0 °F32.0 °F92 %29.66 in8.0 miNNW (340°)23.0 mph35.7 mph0.00 inSnowLight Snow
1:53 AM33.1 °F30.9 °F92 %29.69 in7.0 miNNW (340°)23.0 mph32.2 mph0.00 inSnowLight Snow
2:11 AM33.8 °F30.2 °F87 %29.68 in8.0 miNorth (350°)18.4 mph27.6 mph0.00 inSnowLight Snow
2:53 AM34.0 °F30.9 °F89 %29.71 in8.0 miNNW (330°)23.0 mph31.1 mph0.00 inSnowLight Snow
3:36 AM33.8 °F30.2 °F87 %29.71 in4.0 miNNW (330°)19.6 mph28.8 mph0.00 inSnowLight Snow
3:53 AM33.1 °F30.9 °F92 %29.74 in3.0 miNNW (330°)21.9 mph29.9 mph0.00 inSnowLight Snow
4:14 AM33.8 °F28.4 °F81 %29.73 in3.0 miNNW (340°)26.5 mph34.5 mph0.00 inSnowLight Snow
4:26 AM33.8 °F28.4 °F81 %29.73 in5.0 miNNW (330°)23.0 mph33.4 mph0.00 inSnowLight Snow
4:53 AM32.0 °F28.9 °F88 %29.78 in7.0 miNNW (330°)25.3 mph35.7 mph0.00 inSnowLight Snow
5:53 AM32.0 °F30.0 °F92 %29.81 in3.0 miNW (320°)20.7 mph0.00 inSnowLight Snow
6:53 AM30.9 °F27.0 °F85 %29.85 in7.0 miNNW (340°)27.6 mph38.0 mph0.00 inSnowLight Snow
7:32 AM30.2 °F26.6 °F86 %29.85 in8.0 miNNW (330°)20.7 mph33.4 mph0.00 inOvercast
7:53 AM28.9 °F24.1 °F82 %29.91 in9.0 miNNW (340°)26.5 mph38.0 mph0.00 inMostly Cloudy
8:53 AM28.0 °F21.9 °F78 %29.94 in8.0 miNorth (350°)28.8 mph40.3 mphMostly Cloudy
9:53 AM27.0 °F19.0 °F72 %29.98 in10.0 miNNW (340°)26.5 mph38.0 mphOvercast
10:53 AM27.0 °F18.0 °F69 %30.01 in10.0 miNNW (330°)27.6 mph34.5 mphOvercast
11:53 AM28.9 °F18.0 °F64 %30.00 in10.0 miNNW (340°)17.3 mph25.3 mphMostly Cloudy
12:53 PM30.9 °F17.1 °F57 %29.99 in10.0 miNNW (330°)17.3 mph27.6 mphMostly Cloudy
1:49 PM32.0 °F17.6 °F55 %29.95 in10.0 miNW (310°)19.6 mph29.9 mphMostly Cloudy
1:53 PM32.0 °F17.1 °F54 %29.99 in10.0 miNW (310°)19.6 mphMostly Cloudy
2:53 PM30.9 °F18.0 °F59 %29.99 in10.0 miWNW (300°)15.0 mph27.6 mphOvercast
3:53 PM33.1 °F17.1 °F52 %30.00 in10.0 miWNW (290°)17.3 mph21.9 mphMostly Cloudy
4:53 PM32.0 °F16.0 °F52 %30.00 in10.0 miWest (280°)17.3 mph23.0 mphScattered Clouds
5:53 PM28.9 °F17.1 °F61 %30.01 in10.0 miWNW (300°)11.5 mphPartly Cloudy
6:53 PM27.0 °F16.0 °F63 %30.03 in10.0 miWNW (290°)3.5 mphClear
7:53 PM19.9 °F14.0 °F78 %30.04 in10.0 miSSW (210°)4.6 mphClear
8:53 PM21.0 °F15.1 °F78 %30.03 in10.0 miSouth (170°)3.5 mphClear
9:53 PM19.0 °F15.1 °F85 %30.04 in10.0 miSouth (190°)5.8 mphPartly Cloudy
10:53 PM18.0 °F14.0 °F84 %30.04 in10.0 miSouth (190°)6.9 mphPartly Cloudy
11:53 PM19.0 °F15.1 °F85 %30.04 in10.0 miSSW (210°)4.6 mphScattered Clouds
Hourly data recorded from KICT, located miles away from Wichita, Kansas







STORIES FROM OUR PARTNERS